Wausau, WI

5:48 AM CDT on June 25, 2017 (GMT -0500)
Wausau Downtown

Weather History for KAUW - September, 2012

Change the Weather History Date:

Sunday, September 9, 2012

  Actual Average Record
Temperature  
Mean Temperature 59 °F 61 °F  
Max Temperature 70 °F 72 °F 93 °F (1912)
Min Temperature 48 °F 51 °F 33 °F (1917)
Degree Days  
Heating Degree Days 6 5  
Month to date heating degree days 19 37  
Since 1 July heating degree days 38 103  
Cooling Degree Days 0 2  
Month to date cooling degree days 34 18  
Year to date cooling degree days 720 393  
Growing Degree Days 10 (Base 50)    
Moisture  
Dew Point 48 °F    
Average Humidity 67    
Maximum Humidity 96    
Minimum Humidity 37    
Precipitation  
Precipitation 0.00 in 0.13 in 1.40 in (1938)
Month to date precipitation 1.00 1.17  
Year to date precipitation 20.48 23.38  
Snow  
Snow 0.00 in 0.00 in 0.00 in ()
Month to date snowfall 0.0 0.0  
Since 1 July snowfall 0.0 0.0  
Snow Depth 0.00 in    
Sea Level Pressure  
Sea Level Pressure 30.09 in    
Wind  
Wind Speed 5 mph (NNW)    
Max Wind Speed 14 mph    
Max Gust Speed 18 mph    
Visibility 10 miles    
Events      
T = Trace of Precipitation, MM = Missing Value Source: NWS Daily Summary

Daily Weather History Graph

Daily Weather History Graph

Search for Another Location

Airport or City:

Trip Planner

Search our weather history database for the weather conditions in past years. The results will help you decide how hot, cold, wet, or windy it might be!

Date:

Astronomy

Sep. 09, 2012 Rise Set
Actual Time 6:30 AM CDT 7:19 PM CDT
Civil Twilight 6:00 AM CDT 7:49 PM CDT
Nautical Twilight 5:25 AM CDT 8:24 PM CDT
Astronomical Twilight 4:48 AM CDT 9:01 PM CDT
Moon No Moon Rise 3:16 PM CDT (9/9)
Length of Visible Light 13h 48m
Length of Day
12h 49m
Last Quarter, 39% of the Moon is Illuminated
Sep 9
Last Quarter
Sep 15
New
Sep 22
First Quarter
Sep 29
Full
Oct 8
Last Quarter

Hourly Weather History & Observations

Time (CDT) Temp. Dew Point Humidity Pressure Visibility Wind Dir Wind Speed Gust Speed Precip Events Conditions
12:54 AM 54.0 °F 51.1 °F 90% 29.95 in 10.0 mi NNW 4.6 mph - N/A   Overcast
1:54 AM 53.1 °F 51.1 °F 93% 29.96 in 10.0 mi NNW 5.8 mph - N/A   Partly Cloudy
2:54 AM 52.0 °F 50.0 °F 93% 29.98 in 10.0 mi NNW 5.8 mph - N/A   Clear
3:54 AM 51.1 °F 50.0 °F 96% 30.01 in 10.0 mi NW 5.8 mph - N/A   Partly Cloudy
4:36 AM 51.8 °F 50.0 °F 94% 30.00 in 10.0 mi NW 6.9 mph - N/A   Mostly Cloudy
4:54 AM 51.1 °F 50.0 °F 96% 30.03 in 10.0 mi NW 4.6 mph - N/A   Overcast
5:54 AM 51.1 °F 50.0 °F 96% 30.04 in 10.0 mi NW 6.9 mph - N/A   Clear
6:54 AM 51.1 °F 50.0 °F 96% 30.08 in 10.0 mi NW 5.8 mph - N/A   Clear
7:54 AM 53.1 °F 51.1 °F 93% 30.10 in 10.0 mi West 3.5 mph - N/A   Clear
8:54 AM 57.0 °F 51.1 °F 81% 30.11 in 10.0 mi NNW 6.9 mph - 0.01 in   Scattered Clouds
9:24 AM 59.0 °F 51.8 °F 77% 30.10 in 10.0 mi NNW 8.1 mph - N/A   Mostly Cloudy
9:54 AM 60.1 °F 51.1 °F 72% 30.13 in 10.0 mi North 10.4 mph - N/A   Mostly Cloudy
10:37 AM 62.6 °F 51.8 °F 68% 30.12 in 10.0 mi NW 10.4 mph 16.1 mph N/A   Scattered Clouds
11:54 AM 63.0 °F 48.9 °F 60% 30.14 in 10.0 mi NW 8.1 mph - N/A   Scattered Clouds
12:54 PM 64.9 °F 44.1 °F 47% 30.13 in 10.0 mi North 6.9 mph - N/A   Mostly Cloudy
1:54 PM 66.9 °F 44.1 °F 44% 30.12 in 10.0 mi Variable 5.8 mph - N/A   Mostly Cloudy
2:54 PM 66.9 °F 44.1 °F 44% 30.12 in 10.0 mi WNW 8.1 mph - N/A   Scattered Clouds
4:54 PM 70.0 °F 43.0 °F 38% 30.11 in 10.0 mi NW 10.4 mph - N/A   Scattered Clouds
5:54 PM 69.1 °F 43.0 °F 39% 30.12 in 10.0 mi NW 5.8 mph - N/A   Clear
6:54 PM 66.9 °F 43.0 °F 42% 30.12 in 10.0 mi NNW 4.6 mph - N/A   Clear
7:54 PM 60.1 °F 46.0 °F 60% 30.13 in 10.0 mi Calm Calm - N/A   Clear
8:54 PM 57.0 °F 48.0 °F 72% 30.14 in 10.0 mi Calm Calm - N/A   Clear
9:54 PM 53.1 °F 48.0 °F 83% 30.14 in 10.0 mi East 3.5 mph - N/A   Clear
10:54 PM 51.1 °F 46.9 °F 86% 30.15 in 10.0 mi Calm Calm - N/A   Clear
11:54 PM 48.9 °F 46.0 °F 90% 30.16 in 10.0 mi Calm Calm - N/A   Clear